Location: Newark
(25.6108°S, 54.5803°W)
Time: 08:51:47
(UTC+00:00)

Tiros 1 - Pass Details

Date: 30 October 2020
Orbit: 630 x 664 km, 48.4° (Epoch: 29 November)

Event Time Altitude Azimuth Distance (km) Brightness Sun altitude
Rises 23:52:17 0° 213° (SSW) 3,017 11.6 -25.3°
Reaches altitude 10° 23:55:05 10° 198° (SSW) 2,097 10.4 -25.8°
Enters shadow 23:58:33 23° 153° (SSE) 1,415 8.9 -26.5°
Maximum altitude 23:58:56 23° 145° (SE) 1,405 - -26.6°
Drops below altitude 10° 00:02:45 10° 92° (E) 2,074 - -27.3°
Sets 00:05:30 0° 78° (ENE) 2,974 - -27.8°
